Location: Melbourne
(37.8666°S, 145.1333°E)
Time: 10:51:31
(UTC+10:00)

Daily predictions for brighter satellites

Satellite Brightness Start Highest point End
(mag) Time Altitude Azimuth Time Altitude Azimuth Time Altitude Azimuth
Cosmos 1943 Rocket 3.0 17:49:57 10° S 17:54:52 28° ESE 17:59:44 10° ENE
Orbus 7S? 4.3 17:55:15 10° WNW 17:58:30 55° SW 18:05:04 10° SE
ATLAS CENTAUR R/B 3.0 17:56:56 10° S 18:00:43 21° SE 18:04:24 10° E
Cosmos 1626 4.0 17:57:28 10° SSW 18:00:58 36° W 18:04:27 10° NNW
Ariane Rocket 3.3 17:55:59 10° SSE 18:01:01 49° E 18:05:58 10° N
CENTAUR R/B 2.6 17:56:01 10° SW 18:01:57 73° WNW 18:07:29 10° NNE
IDEFIX/ARIANE 42P 2.6 17:58:35 10° SSE 18:03:57 80° ENE 18:09:14 10° N
YAOGAN 1 3.7 18:07:48 10° SE 18:11:20 23° E 18:14:50 10° NNE
BREEZE M DEB (TANK) 2.9 18:10:26 10° WSW 18:12:22 29° S 18:15:26 12° ESE
Cosmos 2263 4.4 18:06:44 10° SSW 18:12:23 49° ESE 18:17:59 10° NE
Cosmos 1633 Rocket 3.2 18:09:26 10° S 18:13:44 49° E 18:18:00 10° NNE
Cosmos 2084 Rocket 3.6 18:10:55 10° NNW 18:15:19 76° ENE 18:20:02 10° SE
Cosmos 2173 Rocket 4.0 18:13:35 10° N 18:19:55 76° E 18:26:15 10° S
Sich 1 2.9 18:16:00 10° S 18:20:22 74° E 18:24:40 10° NNE
FALCON 9 R/B 1.6 18:17:52 10° W 18:20:33 34° NNW 18:22:33 11° ENE
Cosmos 2369 Rocket 2.1 18:16:05 10° SSW 18:21:46 82° ESE 18:27:23 10° NNE
Cosmos 1937 Rocket 3.9 18:16:37 10° SSW 18:21:53 69° WNW 18:27:01 10° N
Cosmos 2221 4.3 18:18:08 10° NW 18:22:04 34° WSW 18:26:04 10° SSW
Cosmos 1943 3.5 18:17:08 10° NNW 18:22:49 72° WSW 18:28:33 10° SSE
Cosmos 1300 2.7 18:21:16 10° N 18:25:05 63° E 18:28:58 10° SSE
Cosmos 1666 Rocket 3.6 18:20:59 10° S 18:25:33 86° E 18:30:00 10° N
Cosmos 1726 2.2 18:22:57 10° N 18:26:45 85° W 18:30:37 10° S
Cosmos 1802 Rocket 4.0 18:21:52 10° N 18:28:18 76° E 18:34:47 10° S
CZ-4 R/B 1.6 18:24:52 10° SSE 18:29:05 55° E 18:33:11 10° N
USA 267 4.3 18:26:26 15° ESE 18:30:35 26° NE 18:35:54 10° N
Cosmos 540 Rocket 3.6 18:25:38 10° N 18:30:35 51° ENE 18:35:37 10° SSE
Cosmos 2285 Rocket 4.4 18:24:57 10° N 18:30:56 42° E 18:36:56 10° SSE
Meteor 2-2 Rocket 4.3 18:25:13 10° N 18:31:06 67° E 18:36:56 10° SSE
Cosmos 1933 Rocket 4.1 18:30:24 10° S 18:34:30 36° ESE 18:38:32 10° NE
SL-24 R/B - RUBIN 2 4.2 18:30:44 10° N 18:34:34 34° ENE 18:36:50 21° ESE
Cosmos 304 Rocket 3.7 18:32:42 10° NNW 18:37:32 84° ENE 18:42:26 10° SSE
Meteor 2-10 3.9 18:34:56 10° N 18:40:09 74° E 18:45:18 10° SSE
ERS-2 3.9 18:36:56 10° S 18:40:23 34° WSW 18:43:48 10° NW
IRS-1A Rocket 4.4 18:36:37 10° SSE 18:42:34 70° ENE 18:48:25 10° N
Cosmos 1400 Rocket 3.8 18:39:01 10° SSW 18:43:07 52° W 18:47:11 10° N
Cosmos 1328 Rocket 3.5 18:38:51 10° N 18:43:19 87° E 18:47:51 10° S
CZ-3 Stage 3 3.8 18:34:30 10° W 18:44:46 31° NW 18:48:11 10° NNE
Tsikada Rocket 4.2 18:38:58 10° S 18:45:13 48° ESE 18:51:19 10° NNE
Cosmos 1455 3.9 18:46:00 10° NE 18:47:19 17° NE 18:47:19 17° NE
SL-24 DEB 4.3 18:44:44 10° S 18:49:38 88° E 18:54:28 10° N
Cosmos 1656 Rocket 4.2 18:46:15 10° S 18:51:14 34° ESE 18:53:30 24° ENE
ASTEX 1 4.0 18:46:46 10° S 18:51:41 58° W 18:56:33 10° NNW
Cosmos 1151 Rocket 3.0 18:48:24 10° N 18:52:37 59° E 18:56:54 10° SSE
Cosmos 2228 Rocket 3.3 18:52:32 10° NNW 18:56:57 74° W 19:01:27 10° S
Cosmos 1484 Rocket 3.0 18:55:55 10° S 18:59:44 68° WSW 19:03:28 10° NNW
Atlas Centaur 2 3.4 18:56:16 10° WNW 19:02:59 41° N 19:06:40 20° NE
Cosmos 1892 4.1 19:04:18 10° S 19:14:02 - NNE 19:06:11 25° SSE
SMAP 3.9 19:04:08 10° S 19:08:43 51° WSW 19:13:14 10° NNW
SL-8 R/B 4.0 19:04:11 10° SW 19:08:53 50° SSE 19:09:44 44° ESE
Tiangong 1 2.6 19:07:22 10° WSW 19:09:12 25° SSW 19:09:12 25° SSW
MOS 1 4.2 19:06:09 10° SSE 19:11:56 76° ENE 19:17:40 10° N
Cosmos 1725 Rocket 4.0 19:05:58 10° N 19:12:13 84° W 19:18:37 10° S
EXPRESS MD2 3.4 19:07:41 10° SW 19:13:43 60° SSE 19:13:59 58° SE
GPS 2-05 Rocket1 3.3 19:10:54 10° WNW 19:13:50 49° NNW 19:13:50 49° NNW
Cosmos 1470 Rocket 4.0 19:11:10 10° SSW 19:15:38 64° W 19:20:05 10° N
SPOT 3 Rocket 3.4 19:12:05 12° SSE 19:17:02 76° ENE 19:22:17 10° N
Cosmos 1315 Rocket 4.3 19:13:38 10° SSW 19:17:21 38° W 19:21:04 10° NNW
Meteor 2-3 Rocket 3.7 19:13:57 10° S 19:19:52 80° E 19:25:41 10° NNE
Cosmos 372 Rocket 3.9 19:16:38 10° SSW 19:21:58 90° W 19:27:11 10° NNE
Meteor 2-12 Rocket 4.4 19:16:23 10° N 19:22:28 65° E 19:28:37 10° SSE
CZ-3B DEB 4.4 19:17:54 10° NNE 19:23:24 21° NE 19:23:24 21° NE
Cosmos 2233 Rocket 3.9 19:18:31 10° N 19:24:44 76° E 19:31:06 10° S
Cosmos 783 Rocket 4.5 19:22:02 10° NNW 19:27:14 81° WSW 19:29:56 30° SSE
Meteor 1-27 4.5 19:26:00 10° NNW 19:31:34 69° W 19:37:16 10° S
Cosmos 2346 Rocket 4.3 19:26:48 10° S 19:33:02 76° E 19:39:07 10° N
COSMOS 2406 3.1 19:31:28 10° NNW 19:37:15 81° ENE 19:38:28 58° SE
Cosmos 1125 Rocket 4.3 19:33:27 10° SSW 19:38:39 52° WNW 19:43:47 10° N
Cosmos 1943 Rocket 3.5 19:33:25 10° SW 19:38:41 39° WNW 19:43:53 10° N
ATLAS CENTAUR R/B 2.5 19:35:19 10° SW 19:40:04 51° WNW 19:42:27 26° N
USA 229 DEB 4.3 20:02:51 10° SSW 20:07:42 43° S 20:07:42 43° S
USA 229 4.3 20:02:56 10° SSW 20:07:48 42° S 20:07:48 42° S
USA 267 3.2 20:13:48 77° SSW 20:13:55 77° SW 20:20:29 10° NW
USA 184 4.3 20:11:41 10° SSW 20:19:50 78° ESE 20:55:13 10° NNE
Atlas Centaur 2 4.4 20:46:50 10° WNW 20:49:20 18° NW 20:49:20 18° NW
